Thompson, Manitoba

4:01 PM CDT on October 18, 2017 (GMT -0500)
Thompson

Weather History for CYTH - November, 2013

Change the Weather History Date:

Wednesday, November 6, 2013

  Actual Average Record
Temperature  
Mean Temperature 21 °F -  
Max Temperature 24 °F 16 °F 48 °F (2016)
Min Temperature 18 °F 1 °F -15 °F (2014)
Degree Days  
Heating Degree Days 44    
Moisture  
Dew Point 20 °F    
Average Humidity 96    
Maximum Humidity 100    
Minimum Humidity 86    
Precipitation  
Precipitation 0.00 in 0.04 in - ()
Sea Level Pressure  
Sea Level Pressure 30.15 in    
Wind  
Wind Speed 4 mph ()    
Max Wind Speed 9 mph    
Max Gust Speed -    
Visibility 12.2 miles    
Events Snow    
Averages and records for this station are not official NWS values.
T = Trace of Precipitation, MM = Missing Value Source: Averaged Metar Reports

Daily Weather History Graph

Daily Weather History Graph

Search for Another Location

Airport or City:

Trip Planner

Search our weather history database for the weather conditions in past years. The results will help you decide how hot, cold, wet, or windy it might be!

Date:

Astronomy

Nov. 06, 2013 Rise Set
Actual Time 7:49 AM CST 4:40 PM CST
Civil Twilight 7:08 AM CST 5:20 PM CST
Nautical Twilight 6:24 AM CST 6:05 PM CST
Astronomical Twilight 5:41 AM CST 6:48 PM CST
Moon 11:21 AM CST (11/6) 7:31 PM CST (11/6)
Length of Visible Light 10h 12m
Length of Day
8h 51m
Waxing Crescent, 14% of the Moon is Illuminated
Nov 6
Waxing Crescent
Nov 9
First Quarter
Nov 17
Full
Nov 25
Last Quarter
Dec 2
New

Hourly Weather History & Observations

Time (CST) Temp. Windchill Dew Point Humidity Pressure Visibility Wind Dir Wind Speed Gust Speed Precip Events Conditions
12:00 AM 21 °F - 20 °F 95% 30.12 in 10 mi NW 9.2 mph - - Snow Light Snow
12:00 AM 21.2 °F 10.9 °F 19.4 °F 93% 30.12 in 10.0 mi NW 9.2 mph - N/A Snow Light Snow
1:00 AM 21.2 °F 10.9 °F 21.2 °F 100% 30.13 in 4.0 mi NNW 9.2 mph - N/A Snow Light Snow
2:00 AM 19.4 °F 10.4 °F 19.4 °F 100% 30.14 in 8.0 mi NNW 6.9 mph - N/A Snow Light Snow
3:00 AM 19.4 °F 12.8 °F 19.4 °F 100% 30.14 in 15.0 mi NNW 4.6 mph - N/A   Overcast
4:00 AM 17.6 °F - 17.6 °F 100% 30.14 in 15.0 mi North 2.3 mph - N/A   Overcast
5:00 AM 19.4 °F 14.3 °F 17.6 °F 93% 30.14 in 15.0 mi WNW 3.5 mph - N/A   Overcast
6:00 AM 19 °F - 18 °F 96% 30.15 in 15 mi WNW 2.3 mph - -   Partly Cloudy
6:00 AM 19.4 °F 14.3 °F 17.6 °F 93% 30.15 in 15.0 mi WNW 3.5 mph - N/A   Overcast
7:00 AM 19.4 °F - 17.6 °F 93% 30.15 in 15.0 mi Calm Calm - N/A   Overcast
7:36 AM - - - N/A% - 15.0 mi Calm Calm - N/A   Overcast
8:00 AM 19.4 °F - 17.6 °F 93% 30.15 in 15.0 mi Calm Calm - N/A   Overcast
8:28 AM - - - N/A% - 15.0 mi North 3.5 mph - N/A   Unknown
9:00 AM 19.4 °F - 17.6 °F 93% 30.17 in 15.0 mi Calm Calm - N/A Snow Light Snow
10:00 AM 21.2 °F - 19.4 °F 93% 30.17 in 15.0 mi NW 2.3 mph - N/A Snow Light Snow
11:00 AM 21.2 °F - 19.4 °F 93% 30.17 in 15.0 mi WSW 2.3 mph - N/A Snow Light Snow
12:00 PM 22 °F - 20 °F 89% 30.17 in 15 mi Calm Calm - - Snow Light Snow
12:00 PM 23.0 °F - 19.4 °F 86% 30.17 in 15.0 mi Calm Calm - N/A Snow Light Snow
1:00 PM 23.0 °F - 21.2 °F 93% 30.16 in 15.0 mi Calm Calm - N/A Snow Light Snow
2:00 PM 23.0 °F - 21.2 °F 93% 30.16 in 15.0 mi NNW 2.3 mph - N/A Snow Light Snow
3:00 PM 23.0 °F - 23.0 °F 100% 30.16 in 15.0 mi Calm Calm - N/A Snow Light Snow
4:00 PM 23.0 °F - 23.0 °F 100% 30.16 in 12.0 mi West 2.3 mph - N/A Snow Light Snow
5:00 PM 23.0 °F 18.4 °F 23.0 °F 100% 30.16 in 8.0 mi SW 3.5 mph - N/A Snow Light Snow
6:00 PM 22 °F - 22 °F 98% 30.16 in 10 mi West 2.3 mph - - Snow Light Snow
6:00 PM 23.0 °F 18.4 °F 21.2 °F 93% 30.16 in 10.0 mi West 3.5 mph - N/A Snow Light Snow
6:35 PM - - - N/A% - 10.0 mi WSW 2.3 mph - N/A   Unknown
7:00 PM 23.0 °F - 23.0 °F 100% 30.16 in 8.0 mi WSW 2.3 mph - N/A Snow Light Snow
8:00 PM 21.2 °F - 21.2 °F 100% 30.16 in 8.0 mi WSW 2.3 mph - N/A Snow Light Snow
8:41 PM - - - N/A% - 8.0 mi SW 2.3 mph - N/A   Unknown
9:00 PM 21.2 °F 16.4 °F 21.2 °F 100% 30.15 in 8.0 mi West 3.5 mph - N/A Snow Light Snow
9:48 PM - - - N/A% - 10.0 mi SW 2.3 mph - N/A   Unknown
10:00 PM 23.0 °F - 21.2 °F 93% 30.14 in 10.0 mi SW 2.3 mph - N/A Snow Light Snow
11:00 PM 23.0 °F 18.4 °F 23.0 °F 100% 30.14 in 15.0 mi WSW 3.5 mph - N/A Snow Light Snow